Time,TemperatureF,DewpointF,PressureIn,WindDirection,WindDirectionDegrees,WindSpeedMPH,WindSpeedGustMPH,Humidity,HourlyPrecipIn,Conditions,Clouds,dailyrainin,SoftwareType,DateUTC
2013-02-07 00:00:00,17.4,8.0,29.86,WNW,292,2.0,11.0,58,0.00,,,0.00,Rainwise IP-100,2013-02-07 05:00:00,
2013-02-07 00:05:00,16.9,8.0,29.86,North,360,2.0,8.0,59,0.00,,,0.00,Rainwise IP-100,2013-02-07 05:05:00,
2013-02-07 00:10:00,16.5,8.0,29.87,WNW,292,0.0,9.0,59,0.00,,,0.00,Rainwise IP-100,2013-02-07 05:10:00,
2013-02-07 00:15:00,16.1,4.0,29.87,ESE,112,2.0,9.0,57,0.00,,,0.00,Rainwise IP-100,2013-02-07 05:15:00,
2013-02-07 00:20:00,15.7,4.0,29.88,WNW,292,2.0,14.0,55,0.00,,,0.00,Rainwise IP-100,2013-02-07 05:20:00,
2013-02-07 00:25:00,15.5,4.0,29.89,WSW,247,1.0,7.0,56,0.00,,,0.00,Rainwise IP-100,2013-02-07 05:25:00,
2013-02-07 00:30:00,15.2,4.0,29.89,NNW,337,2.0,8.0,56,0.00,,,0.00,Rainwise IP-100,2013-02-07 05:30:00,
2013-02-07 00:35:00,14.9,4.0,29.89,North,360,2.0,12.0,60,0.00,,,0.00,Rainwise IP-100,2013-02-07 05:35:00,
2013-02-07 00:40:00,14.7,4.0,29.89,SSW,202,4.0,7.0,58,0.00,,,0.00,Rainwise IP-100,2013-02-07 05:40:00,
2013-02-07 00:45:00,14.5,4.0,29.89,South,180,2.0,6.0,58,0.00,,,0.00,Rainwise IP-100,2013-02-07 05:45:00,
2013-02-07 00:50:00,14.3,4.0,29.89,SSE,157,1.0,8.0,58,0.00,,,0.00,Rainwise IP-100,2013-02-07 05:50:00,
2013-02-07 00:55:00,14.2,4.0,29.89,SE,135,1.0,10.0,58,0.00,,,0.00,Rainwise IP-100,2013-02-07 05:55:00,
2013-02-07 01:00:00,14.1,4.0,29.89,SW,225,1.0,7.0,58,0.00,,,0.00,Rainwise IP-100,2013-02-07 06:00:00,
2013-02-07 01:05:00,13.9,4.0,29.89,WSW,247,2.0,6.0,59,0.00,,,0.00,Rainwise IP-100,2013-02-07 06:05:00,
2013-02-07 01:10:00,13.8,4.0,29.89,NNW,337,3.0,8.0,57,0.00,,,0.00,Rainwise IP-100,2013-02-07 06:10:00,
2013-02-07 01:15:00,13.6,4.0,29.89,SSW,202,2.0,9.0,57,0.00,,,0.00,Rainwise IP-100,2013-02-07 06:15:00,
2013-02-07 01:20:00,13.4,0.0,29.89,SSE,157,2.0,7.0,56,0.00,,,0.00,Rainwise IP-100,2013-02-07 06:20:00,
2013-02-07 01:25:00,13.4,0.0,29.89,WSW,247,2.0,10.0,56,0.00,,,0.00,Rainwise IP-100,2013-02-07 06:25:00,
2013-02-07 01:30:00,13.2,4.0,29.89,NW,315,7.0,7.0,57,0.00,,,0.00,Rainwise IP-100,2013-02-07 06:30:00,
2013-02-07 01:35:00,13.1,4.0,29.90,NNW,337,5.0,11.0,57,0.00,,,0.00,Rainwise IP-100,2013-02-07 06:35:00,
2013-02-07 01:40:00,13.1,4.0,29.90,WNW,292,8.0,8.0,57,0.00,,,0.00,Rainwise IP-100,2013-02-07 06:40:00,
2013-02-07 01:45:00,12.9,4.0,29.91,SW,225,2.0,10.0,57,0.00,,,0.00,Rainwise IP-100,2013-02-07 06:45:00,
2013-02-07 01:50:00,12.9,0.0,29.91,WSW,247,4.0,7.0,56,0.00,,,0.00,Rainwise IP-100,2013-02-07 06:50:00,
2013-02-07 01:55:00,12.9,4.0,29.91,WNW,292,4.0,11.0,59,0.00,,,0.00,Rainwise IP-100,2013-02-07 06:55:00,
2013-02-07 02:00:00,12.9,4.0,29.91,SSW,202,2.0,7.0,60,0.00,,,0.00,Rainwise IP-100,2013-02-07 07:00:00,
2013-02-07 02:05:00,12.6,4.0,29.91,East,90,2.0,9.0,60,0.00,,,0.00,Rainwise IP-100,2013-02-07 07:05:00,
2013-02-07 02:10:00,12.5,4.0,29.91,WNW,292,7.0,8.0,60,0.00,,,0.00,Rainwise IP-100,2013-02-07 07:10:00,
2013-02-07 02:15:00,12.4,4.0,29.91,North,360,2.0,9.0,59,0.00,,,0.00,Rainwise IP-100,2013-02-07 07:15:00,
2013-02-07 02:20:00,12.4,4.0,29.92,WSW,247,4.0,10.0,59,0.00,,,0.00,Rainwise IP-100,2013-02-07 07:20:00,
2013-02-07 02:25:00,12.6,0.0,29.92,WSW,247,2.0,9.0,56,0.00,,,0.00,Rainwise IP-100,2013-02-07 07:25:00,
2013-02-07 02:30:00,12.8,4.0,29.92,WSW,247,4.0,9.0,61,0.00,,,0.00,Rainwise IP-100,2013-02-07 07:30:00,
2013-02-07 02:35:00,12.7,4.0,29.92,West,270,2.0,7.0,60,0.00,,,0.00,Rainwise IP-100,2013-02-07 07:35:00,
2013-02-07 02:40:00,12.3,0.0,29.92,WSW,247,2.0,9.0,56,0.00,,,0.00,Rainwise IP-100,2013-02-07 07:40:00,
2013-02-07 02:45:00,11.9,4.0,29.92,SW,225,2.0,7.0,59,0.00,,,0.00,Rainwise IP-100,2013-02-07 07:45:00,
2013-02-07 02:50:00,11.8,4.0,29.92,WSW,247,2.0,7.0,61,0.00,,,0.00,Rainwise IP-100,2013-02-07 07:50:00,
2013-02-07 02:55:00,11.4,0.0,29.93,SSW,202,1.0,10.0,58,0.00,,,0.00,Rainwise IP-100,2013-02-07 07:55:00,
2013-02-07 03:01:00,11.3,0.0,29.93,North,360,3.0,7.0,58,0.00,,,0.00,Rainwise IP-100,2013-02-07 08:01:00,
2013-02-07 03:06:00,11.1,0.0,29.94,WSW,247,4.0,9.0,57,0.00,,,0.00,Rainwise IP-100,2013-02-07 08:06:00,
2013-02-07 03:11:00,11.2,0.0,29.94,WNW,292,6.0,6.0,62,0.00,,,0.00,Rainwise IP-100,2013-02-07 08:11:00,
2013-02-07 03:16:00,11.3,0.0,29.94,West,270,4.0,8.0,59,0.00,,,0.00,Rainwise IP-100,2013-02-07 08:16:00,
2013-02-07 03:21:00,11.3,0.0,29.94,WSW,247,7.0,8.0,59,0.00,,,0.00,Rainwise IP-100,2013-02-07 08:21:00,
2013-02-07 03:26:00,11.4,0.0,29.95,West,270,4.0,8.0,64,0.00,,,0.00,Rainwise IP-100,2013-02-07 08:26:00,
2013-02-07 03:31:00,11.4,4.0,29.95,WSW,247,4.0,10.0,67,0.00,,,0.00,Rainwise IP-100,2013-02-07 08:31:00,
2013-02-07 03:36:00,11.2,0.0,29.95,WSW,247,3.0,8.0,62,0.00,,,0.00,Rainwise IP-100,2013-02-07 08:36:00,
2013-02-07 03:41:00,10.8,0.0,29.95,WNW,292,1.0,7.0,61,0.00,,,0.00,Rainwise IP-100,2013-02-07 08:41:00,
2013-02-07 03:46:00,10.4,0.0,29.96,West,270,2.0,9.0,59,0.00,,,0.00,Rainwise IP-100,2013-02-07 08:46:00,
2013-02-07 03:51:00,10.2,0.0,29.96,East,90,4.0,12.0,59,0.00,,,0.00,Rainwise IP-100,2013-02-07 08:51:00,
2013-02-07 03:56:00,10.1,0.0,29.96,North,360,0.0,8.0,59,0.00,,,0.00,Rainwise IP-100,2013-02-07 08:56:00,
2013-02-07 04:01:00,9.8,0.0,29.96,East,90,0.0,7.0,61,0.00,,,0.00,Rainwise IP-100,2013-02-07 09:01:00,
2013-02-07 04:06:00,9.6,0.0,29.96,East,90,0.0,6.0,61,0.00,,,0.00,Rainwise IP-100,2013-02-07 09:06:00,
2013-02-07 04:11:00,9.4,0.0,29.96,SSW,202,1.0,8.0,60,0.00,,,0.00,Rainwise IP-100,2013-02-07 09:11:00,
2013-02-07 04:16:00,9.4,0.0,29.96,WNW,292,2.0,9.0,61,0.00,,,0.00,Rainwise IP-100,2013-02-07 09:16:00,
2013-02-07 04:21:00,9.3,0.0,29.97,West,270,5.0,5.0,60,0.00,,,0.00,Rainwise IP-100,2013-02-07 09:21:00,
2013-02-07 04:26:00,9.1,0.0,29.97,West,270,1.0,6.0,57,0.00,,,0.00,Rainwise IP-100,2013-02-07 09:26:00,
2013-02-07 04:31:00,9.2,0.0,29.97,WNW,292,2.0,7.0,60,0.00,,,0.00,Rainwise IP-100,2013-02-07 09:31:00,
2013-02-07 04:36:00,8.9,0.0,29.97,NW,315,1.0,8.0,57,0.00,,,0.00,Rainwise IP-100,2013-02-07 09:36:00,
2013-02-07 04:41:00,8.9,0.0,29.98,ESE,112,1.0,12.0,61,0.00,,,0.00,Rainwise IP-100,2013-02-07 09:41:00,
2013-02-07 04:46:00,8.9,0.0,29.97,WSW,247,4.0,7.0,59,0.00,,,0.00,Rainwise IP-100,2013-02-07 09:46:00,
2013-02-07 04:51:00,8.8,0.0,29.98,WSW,247,2.0,9.0,58,0.00,,,0.00,Rainwise IP-100,2013-02-07 09:51:00,
2013-02-07 04:56:00,8.7,0.0,29.98,WSW,247,4.0,12.0,56,0.00,,,0.00,Rainwise IP-100,2013-02-07 09:56:00,
2013-02-07 05:01:00,8.8,0.0,29.98,WSW,247,4.0,9.0,59,0.00,,,0.00,Rainwise IP-100,2013-02-07 10:01:00,
2013-02-07 05:06:00,8.5,0.0,29.99,North,360,1.0,7.0,59,0.00,,,0.00,Rainwise IP-100,2013-02-07 10:06:00,
2013-02-07 05:11:00,8.3,0.0,29.98,NNW,337,3.0,7.0,63,0.00,,,0.00,Rainwise IP-100,2013-02-07 10:11:00,
2013-02-07 05:16:00,8.1,0.0,29.98,North,360,1.0,7.0,61,0.00,,,0.00,Rainwise IP-100,2013-02-07 10:16:00,
2013-02-07 05:21:00,7.9,0.0,29.99,North,360,3.0,5.0,62,0.00,,,0.00,Rainwise IP-100,2013-02-07 10:21:00,
2013-02-07 05:26:00,7.6,0.0,29.99,NW,315,3.0,10.0,61,0.00,,,0.00,Rainwise IP-100,2013-02-07 10:26:00,
2013-02-07 05:31:00,7.4,0.0,30.00,North,360,3.0,9.0,62,0.00,,,0.00,Rainwise IP-100,2013-02-07 10:31:00,
2013-02-07 05:36:00,7.4,0.0,30.00,North,360,1.0,8.0,64,0.00,,,0.00,Rainwise IP-100,2013-02-07 10:36:00,
2013-02-07 05:41:00,7.6,0.0,30.01,WSW,247,2.0,6.0,67,0.00,,,0.00,Rainwise IP-100,2013-02-07 10:41:00,
2013-02-07 05:46:00,7.4,0.0,30.01,WSW,247,5.0,9.0,61,0.00,,,0.00,Rainwise IP-100,2013-02-07 10:46:00,
2013-02-07 05:51:00,7.2,0.0,30.02,NW,315,1.0,8.0,60,0.00,,,0.00,Rainwise IP-100,2013-02-07 10:51:00,
2013-02-07 05:56:00,7.4,0.0,30.02,WNW,292,2.0,6.0,64,0.00,,,0.00,Rainwise IP-100,2013-02-07 10:56:00,
2013-02-07 06:01:00,7.2,0.0,30.02,NW,315,4.0,7.0,62,0.00,,,0.00,Rainwise IP-100,2013-02-07 11:01:00,
2013-02-07 06:06:00,6.9,0.0,30.02,West,270,3.0,6.0,61,0.00,,,0.00,Rainwise IP-100,2013-02-07 11:06:00,
2013-02-07 06:11:00,6.7,0.0,30.03,NW,315,2.0,9.0,61,0.00,,,0.00,Rainwise IP-100,2013-02-07 11:11:00,
2013-02-07 06:16:00,6.5,0.0,30.03,North,360,1.0,7.0,61,0.00,,,0.00,Rainwise IP-100,2013-02-07 11:16:00,
2013-02-07 06:21:00,6.4,0.0,30.03,North,360,5.0,8.0,62,0.00,,,0.00,Rainwise IP-100,2013-02-07 11:21:00,
2013-02-07 06:26:00,6.2,0.0,30.04,East,90,1.0,8.0,63,0.00,,,0.00,Rainwise IP-100,2013-02-07 11:26:00,
2013-02-07 06:31:00,6.2,0.0,30.04,WNW,292,2.0,5.0,61,0.00,,,0.00,Rainwise IP-100,2013-02-07 11:31:00,
2013-02-07 06:36:00,6.1,0.0,30.04,North,360,3.0,7.0,62,0.00,,,0.00,Rainwise IP-100,2013-02-07 11:36:00,
2013-02-07 06:41:00,6.2,0.0,30.04,WSW,247,1.0,7.0,63,0.00,,,0.00,Rainwise IP-100,2013-02-07 11:41:00,
2013-02-07 06:46:00,6.1,0.0,30.04,North,360,2.0,10.0,63,0.00,,,0.00,Rainwise IP-100,2013-02-07 11:46:00,
2013-02-07 06:51:00,5.9,0.0,30.04,North,360,2.0,8.0,61,0.00,,,0.00,Rainwise IP-100,2013-02-07 11:51:00,
2013-02-07 06:56:00,5.8,0.0,30.05,ESE,112,3.0,7.0,62,0.00,,,0.00,Rainwise IP-100,2013-02-07 11:56:00,
2013-02-07 07:01:00,5.6,0.0,30.05,North,360,2.0,8.0,61,0.00,,,0.00,Rainwise IP-100,2013-02-07 12:01:00,
2013-02-07 07:06:00,5.6,0.0,30.05,WSW,247,5.0,5.0,65,0.00,,,0.00,Rainwise IP-100,2013-02-07 12:06:00,
2013-02-07 07:11:00,5.7,0.0,30.06,SSE,157,0.0,8.0,62,0.00,,,0.00,Rainwise IP-100,2013-02-07 12:11:00,
2013-02-07 07:16:00,5.7,0.0,30.06,SW,225,8.0,8.0,61,0.00,,,0.00,Rainwise IP-100,2013-02-07 12:16:00,
2013-02-07 07:21:00,5.7,0.0,30.06,WSW,247,2.0,8.0,61,0.00,,,0.00,Rainwise IP-100,2013-02-07 12:21:00,
2013-02-07 07:26:00,5.5,0.0,30.06,West,270,3.0,11.0,59,0.00,,,0.00,Rainwise IP-100,2013-02-07 12:26:00,
2013-02-07 07:31:00,5.5,0.0,30.06,WNW,292,4.0,11.0,59,0.00,,,0.00,Rainwise IP-100,2013-02-07 12:31:00,
2013-02-07 07:36:00,5.4,0.0,30.07,WNW,292,6.0,9.0,59,0.00,,,0.00,Rainwise IP-100,2013-02-07 12:36:00,
2013-02-07 07:41:00,5.4,-6.0,30.07,WSW,247,2.0,9.0,55,0.00,,,0.00,Rainwise IP-100,2013-02-07 12:41:00,
2013-02-07 07:46:00,5.5,0.0,30.08,WSW,247,4.0,6.0,61,0.00,,,0.00,Rainwise IP-100,2013-02-07 12:46:00,
2013-02-07 07:51:00,6.2,-6.0,30.08,NNW,337,1.0,8.0,58,0.00,,,0.00,Rainwise IP-100,2013-02-07 12:51:00,
2013-02-07 07:56:00,6.6,0.0,30.08,North,360,1.0,12.0,60,0.00,,,0.00,Rainwise IP-100,2013-02-07 12:56:00,
2013-02-07 08:01:00,6.9,0.0,30.08,West,270,3.0,9.0,60,0.00,,,0.00,Rainwise IP-100,2013-02-07 13:01:00,
2013-02-07 08:06:00,7.3,0.0,30.08,SW,225,1.0,8.0,60,0.00,,,0.00,Rainwise IP-100,2013-02-07 13:06:00,
2013-02-07 08:11:00,6.9,-6.0,30.09,SSW,202,6.0,9.0,57,0.00,,,0.00,Rainwise IP-100,2013-02-07 13:11:00,
2013-02-07 08:16:00,7.1,-6.0,30.09,WSW,247,2.0,10.0,54,0.00,,,0.00,Rainwise IP-100,2013-02-07 13:16:00,
2013-02-07 08:21:00,7.3,-6.0,30.10,West,270,1.0,7.0,55,0.00,,,0.00,Rainwise IP-100,2013-02-07 13:21:00,
2013-02-07 08:26:00,7.2,-6.0,30.10,West,270,5.0,11.0,49,0.00,,,0.00,Rainwise IP-100,2013-02-07 13:26:00,
2013-02-07 08:31:00,7.4,-6.0,30.10,North,360,3.0,12.0,51,0.00,,,0.00,Rainwise IP-100,2013-02-07 13:31:00,
2013-02-07 08:36:00,7.5,-6.0,30.10,WSW,247,1.0,9.0,55,0.00,,,0.00,Rainwise IP-100,2013-02-07 13:36:00,
2013-02-07 08:41:00,7.8,-6.0,30.11,NW,315,3.0,9.0,53,0.00,,,0.00,Rainwise IP-100,2013-02-07 13:41:00,
2013-02-07 08:46:00,7.9,-6.0,30.11,North,360,4.0,11.0,54,0.00,,,0.00,Rainwise IP-100,2013-02-07 13:46:00,
2013-02-07 08:51:00,7.7,-6.0,30.11,SW,225,4.0,9.0,51,0.00,,,0.00,Rainwise IP-100,2013-02-07 13:51:00,
2013-02-07 08:56:00,7.9,-6.0,30.12,WSW,247,2.0,11.0,57,0.00,,,0.00,Rainwise IP-100,2013-02-07 13:56:00,
2013-02-07 09:01:00,8.4,-6.0,30.12,SW,225,1.0,11.0,51,0.00,,,0.00,Rainwise IP-100,2013-02-07 14:01:00,
2013-02-07 09:06:00,8.3,-6.0,30.12,WNW,292,2.0,12.0,50,0.00,,,0.00,Rainwise IP-100,2013-02-07 14:06:00,
2013-02-07 09:11:00,8.3,-6.0,30.12,NNW,337,4.0,11.0,50,0.00,,,0.00,Rainwise IP-100,2013-02-07 14:11:00,
2013-02-07 09:16:00,8.3,-6.0,30.12,North,360,5.0,10.0,49,0.00,,,0.00,Rainwise IP-100,2013-02-07 14:16:00,
2013-02-07 09:21:00,8.1,-6.0,30.13,NNW,337,5.0,11.0,50,0.00,,,0.00,Rainwise IP-100,2013-02-07 14:21:00,
2013-02-07 09:26:00,7.9,-6.0,30.13,WSW,247,6.0,14.0,49,0.00,,,0.00,Rainwise IP-100,2013-02-07 14:26:00,
2013-02-07 09:31:00,8.1,-6.0,30.14,SSW,202,2.0,7.0,54,0.00,,,0.00,Rainwise IP-100,2013-02-07 14:31:00,
2013-02-07 09:36:00,8.3,-6.0,30.14,WSW,247,4.0,9.0,54,0.00,,,0.00,Rainwise IP-100,2013-02-07 14:36:00,
2013-02-07 09:41:00,7.9,-6.0,30.15,WNW,292,4.0,11.0,50,0.00,,,0.00,Rainwise IP-100,2013-02-07 14:41:00,
2013-02-07 09:46:00,7.8,-6.0,30.14,SSW,202,1.0,12.0,49,0.00,,,0.00,Rainwise IP-100,2013-02-07 14:46:00,
2013-02-07 09:51:00,7.7,-6.0,30.15,West,270,4.0,9.0,49,0.00,,,0.00,Rainwise IP-100,2013-02-07 14:51:00,
2013-02-07 09:56:00,7.6,-6.0,30.14,WSW,247,5.0,10.0,48,0.00,,,0.00,Rainwise IP-100,2013-02-07 14:56:00,
2013-02-07 10:01:00,8.1,-6.0,30.15,East,90,6.0,7.0,48,0.00,,,0.00,Rainwise IP-100,2013-02-07 15:01:00,
2013-02-07 10:06:00,8.3,-6.0,30.15,WNW,292,2.0,7.0,49,0.00,,,0.00,Rainwise IP-100,2013-02-07 15:06:00,
2013-02-07 10:11:00,8.6,-6.0,30.16,WSW,247,4.0,9.0,44,0.00,,,0.00,Rainwise IP-100,2013-02-07 15:11:00,
2013-02-07 10:16:00,8.2,-6.0,30.16,NNW,337,1.0,11.0,48,0.00,,,0.00,Rainwise IP-100,2013-02-07 15:16:00,
2013-02-07 10:21:00,8.6,-6.0,30.16,West,270,6.0,9.0,49,0.00,,,0.00,Rainwise IP-100,2013-02-07 15:21:00,
2013-02-07 10:26:00,8.3,-6.0,30.15,WSW,247,3.0,9.0,48,0.00,,,0.00,Rainwise IP-100,2013-02-07 15:26:00,
2013-02-07 10:31:00,8.8,0.0,30.16,WSW,247,7.0,12.0,52,0.00,,,0.00,Rainwise IP-100,2013-02-07 15:31:00,
2013-02-07 10:36:00,8.7,-6.0,30.16,NW,315,2.0,9.0,45,0.00,,,0.00,Rainwise IP-100,2013-02-07 15:36:00,
2013-02-07 10:41:00,8.9,-6.0,30.17,WSW,247,6.0,8.0,49,0.00,,,0.00,Rainwise IP-100,2013-02-07 15:41:00,
2013-02-07 10:46:00,9.3,-6.0,30.17,WSW,247,2.0,7.0,49,0.00,,,0.00,Rainwise IP-100,2013-02-07 15:46:00,
2013-02-07 10:51:00,9.3,-6.0,30.17,SSW,202,2.0,10.0,40,0.00,,,0.00,Rainwise IP-100,2013-02-07 15:51:00,
2013-02-07 10:56:00,9.2,-6.0,30.17,NNW,337,2.0,8.0,43,0.00,,,0.00,Rainwise IP-100,2013-02-07 15:56:00,
2013-02-07 11:00:00,9.2,-6.0,30.17,South,180,2.0,8.0,43,0.00,,,0.00,Rainwise IP-100,2013-02-07 16:00:00,
2013-02-07 11:05:00,9.4,-6.0,30.16,NW,315,2.0,7.0,41,0.00,,,0.00,Rainwise IP-100,2013-02-07 16:05:00,
2013-02-07 11:10:00,9.8,-6.0,30.16,NW,315,1.0,7.0,45,0.00,,,0.00,Rainwise IP-100,2013-02-07 16:10:00,
2013-02-07 11:15:00,10.4,-6.0,30.16,NW,315,6.0,7.0,47,0.00,,,0.00,Rainwise IP-100,2013-02-07 16:15:00,
2013-02-07 11:20:00,10.2,-6.0,30.15,SW,225,5.0,9.0,41,0.00,,,0.00,Rainwise IP-100,2013-02-07 16:20:00,
2013-02-07 11:25:00,9.8,-6.0,30.16,WNW,292,6.0,9.0,40,0.00,,,0.00,Rainwise IP-100,2013-02-07 16:25:00,
2013-02-07 11:30:00,9.8,-6.0,30.16,NNW,337,2.0,8.0,41,0.00,,,0.00,Rainwise IP-100,2013-02-07 16:30:00,
2013-02-07 11:35:00,10.2,-6.0,30.16,WSW,247,3.0,10.0,41,0.00,,,0.00,Rainwise IP-100,2013-02-07 16:35:00,
2013-02-07 11:40:00,10.3,-6.0,30.16,WNW,292,1.0,7.0,45,0.00,,,0.00,Rainwise IP-100,2013-02-07 16:40:00,
2013-02-07 11:45:00,10.4,-6.0,30.15,SSW,202,2.0,7.0,42,0.00,,,0.00,Rainwise IP-100,2013-02-07 16:45:00,
2013-02-07 11:50:00,10.6,-6.0,30.15,WNW,292,4.0,6.0,45,0.00,,,0.00,Rainwise IP-100,2013-02-07 16:50:00,
2013-02-07 11:55:00,10.4,-6.0,30.15,NNW,337,0.0,9.0,39,0.00,,,0.00,Rainwise IP-100,2013-02-07 16:55:00,
2013-02-07 12:00:00,10.7,-6.0,30.15,WSW,247,2.0,10.0,41,0.00,,,0.00,Rainwise IP-100,2013-02-07 17:00:00,
2013-02-07 12:05:00,10.8,-6.0,30.15,NNW,337,2.0,7.0,43,0.00,,,0.00,Rainwise IP-100,2013-02-07 17:05:00,
2013-02-07 12:10:00,10.6,-6.0,30.15,WSW,247,4.0,9.0,39,0.00,,,0.00,Rainwise IP-100,2013-02-07 17:10:00,
2013-02-07 12:15:00,10.8,-6.0,30.16,SSE,157,4.0,11.0,40,0.00,,,0.00,Rainwise IP-100,2013-02-07 17:15:00,
2013-02-07 12:20:00,11.3,-6.0,30.15,WSW,247,2.0,8.0,41,0.00,,,0.00,Rainwise IP-100,2013-02-07 17:20:00,
2013-02-07 12:25:00,11.7,-6.0,30.15,WNW,292,2.0,9.0,37,0.00,,,0.00,Rainwise IP-100,2013-02-07 17:25:00,
2013-02-07 12:30:00,12.1,-6.0,30.15,West,270,3.0,9.0,42,0.00,,,0.00,Rainwise IP-100,2013-02-07 17:30:00,
2013-02-07 12:35:00,12.2,-6.0,30.14,WSW,247,2.0,7.0,41,0.00,,,0.00,Rainwise IP-100,2013-02-07 17:35:00,
2013-02-07 12:40:00,12.5,-6.0,30.14,North,360,2.0,6.0,40,0.00,,,0.00,Rainwise IP-100,2013-02-07 17:40:00,
2013-02-07 12:45:00,12.2,-6.0,30.15,NW,315,4.0,8.0,42,0.00,,,0.00,Rainwise IP-100,2013-02-07 17:45:00,
2013-02-07 12:50:00,12.2,-6.0,30.15,SW,225,3.0,6.0,39,0.00,,,0.00,Rainwise IP-100,2013-02-07 17:50:00,
2013-02-07 12:55:00,12.3,-6.0,30.15,WSW,247,2.0,6.0,42,0.00,,,0.00,Rainwise IP-100,2013-02-07 17:55:00,
2013-02-07 13:00:00,12.2,-6.0,30.15,WSW,247,3.0,8.0,40,0.00,,,0.00,Rainwise IP-100,2013-02-07 18:00:00,
2013-02-07 13:05:00,12.3,-6.0,30.15,WNW,292,4.0,7.0,42,0.00,,,0.00,Rainwise IP-100,2013-02-07 18:05:00,
2013-02-07 13:10:00,12.9,-6.0,30.15,SW,225,4.0,11.0,40,0.00,,,0.00,Rainwise IP-100,2013-02-07 18:10:00,
2013-02-07 13:15:00,12.4,-6.0,30.15,SW,225,1.0,10.0,40,0.00,,,0.00,Rainwise IP-100,2013-02-07 18:15:00,
2013-02-07 13:20:00,12.8,-6.0,30.15,NW,315,4.0,7.0,42,0.00,,,0.00,Rainwise IP-100,2013-02-07 18:20:00,
2013-02-07 13:25:00,13.4,-6.0,30.15,NNW,337,2.0,10.0,41,0.00,,,0.00,Rainwise IP-100,2013-02-07 18:25:00,
2013-02-07 13:30:00,13.5,-6.0,30.15,West,270,7.0,7.0,36,0.00,,,0.00,Rainwise IP-100,2013-02-07 18:30:00,
2013-02-07 13:35:00,13.3,-6.0,30.15,NNW,337,5.0,9.0,38,0.00,,,0.00,Rainwise IP-100,2013-02-07 18:35:00,
2013-02-07 13:40:00,13.2,-6.0,30.15,WSW,247,2.0,9.0,42,0.00,,,0.00,Rainwise IP-100,2013-02-07 18:40:00,
2013-02-07 13:45:00,13.2,-6.0,30.15,WSW,247,5.0,7.0,37,0.00,,,0.00,Rainwise IP-100,2013-02-07 18:45:00,
2013-02-07 13:50:00,12.9,-6.0,30.15,WSW,247,3.0,11.0,36,0.00,,,0.00,Rainwise IP-100,2013-02-07 18:50:00,
2013-02-07 13:55:00,13.2,-6.0,30.15,WNW,292,1.0,12.0,35,0.00,,,0.00,Rainwise IP-100,2013-02-07 18:55:00,
2013-02-07 14:00:00,13.3,-6.0,30.15,WNW,292,4.0,13.0,35,0.00,,,0.00,Rainwise IP-100,2013-02-07 19:00:00,
2013-02-07 14:05:00,12.9,-6.0,30.15,NNW,337,4.0,9.0,34,0.00,,,0.00,Rainwise IP-100,2013-02-07 19:05:00,
2013-02-07 14:10:00,13.3,-6.0,30.15,NW,315,4.0,9.0,37,0.00,,,0.00,Rainwise IP-100,2013-02-07 19:10:00,
2013-02-07 14:15:00,13.7,-6.0,30.15,SSE,157,0.0,8.0,36,0.00,,,0.00,Rainwise IP-100,2013-02-07 19:15:00,
2013-02-07 14:20:00,13.7,-6.0,30.16,South,180,0.0,10.0,38,0.00,,,0.00,Rainwise IP-100,2013-02-07 19:20:00,
2013-02-07 14:25:00,13.8,-6.0,30.15,SW,225,0.0,8.0,39,0.00,,,0.00,Rainwise IP-100,2013-02-07 19:25:00,
2013-02-07 14:30:00,13.4,-6.0,30.16,North,360,3.0,12.0,36,0.00,,,0.00,Rainwise IP-100,2013-02-07 19:30:00,
2013-02-07 14:35:00,13.7,-6.0,30.15,NNW,337,2.0,10.0,36,0.00,,,0.00,Rainwise IP-100,2013-02-07 19:35:00,
2013-02-07 14:40:00,13.8,-6.0,30.15,North,360,4.0,8.0,34,0.00,,,0.00,Rainwise IP-100,2013-02-07 19:40:00,
2013-02-07 14:45:00,13.8,-6.0,30.16,North,360,0.0,8.0,36,0.00,,,0.00,Rainwise IP-100,2013-02-07 19:45:00,
2013-02-07 14:50:00,13.6,-6.0,30.15,NNW,337,3.0,11.0,35,0.00,,,0.00,Rainwise IP-100,2013-02-07 19:50:00,
2013-02-07 14:55:00,13.8,-6.0,30.16,WSW,247,2.0,9.0,36,0.00,,,0.00,Rainwise IP-100,2013-02-07 19:55:00,
2013-02-07 15:00:00,13.6,-6.0,30.16,West,270,2.0,9.0,33,0.00,,,0.00,Rainwise IP-100,2013-02-07 20:00:00,
2013-02-07 15:05:00,13.5,-6.0,30.16,North,360,2.0,7.0,35,0.00,,,0.00,Rainwise IP-100,2013-02-07 20:05:00,
2013-02-07 15:10:00,13.6,-6.0,30.16,WSW,247,1.0,8.0,34,0.00,,,0.00,Rainwise IP-100,2013-02-07 20:10:00,
2013-02-07 15:15:00,14.2,-6.0,30.16,WSW,247,1.0,9.0,36,0.00,,,0.00,Rainwise IP-100,2013-02-07 20:15:00,
2013-02-07 15:20:00,13.9,-6.0,30.16,SW,225,4.0,8.0,34,0.00,,,0.00,Rainwise IP-100,2013-02-07 20:20:00,
2013-02-07 15:25:00,13.5,-6.0,30.16,NW,315,2.0,9.0,34,0.00,,,0.00,Rainwise IP-100,2013-02-07 20:25:00,
2013-02-07 15:30:00,13.5,-6.0,30.16,WSW,247,1.0,7.0,33,0.00,,,0.00,Rainwise IP-100,2013-02-07 20:30:00,
2013-02-07 15:35:00,13.3,-6.0,30.17,WNW,292,3.0,9.0,33,0.00,,,0.00,Rainwise IP-100,2013-02-07 20:35:00,
2013-02-07 15:40:00,13.5,-6.0,30.17,NNW,337,1.0,9.0,35,0.00,,,0.00,Rainwise IP-100,2013-02-07 20:40:00,
2013-02-07 15:45:00,13.6,-6.0,30.17,WNW,292,2.0,7.0,35,0.00,,,0.00,Rainwise IP-100,2013-02-07 20:45:00,
2013-02-07 15:50:00,13.5,-6.0,30.17,North,360,2.0,7.0,33,0.00,,,0.00,Rainwise IP-100,2013-02-07 20:50:00,
2013-02-07 15:55:00,13.2,-6.0,30.17,WNW,292,2.0,9.0,34,0.00,,,0.00,Rainwise IP-100,2013-02-07 20:55:00,
2013-02-07 16:00:00,13.2,-6.0,30.17,WNW,292,1.0,8.0,36,0.00,,,0.00,Rainwise IP-100,2013-02-07 21:00:00,
2013-02-07 16:05:00,13.5,-6.0,30.17,WNW,292,3.0,7.0,35,0.00,,,0.00,Rainwise IP-100,2013-02-07 21:05:00,
2013-02-07 16:10:00,13.4,-6.0,30.18,ESE,112,0.0,6.0,35,0.00,,,0.00,Rainwise IP-100,2013-02-07 21:10:00,
2013-02-07 16:15:00,12.8,-6.0,30.18,North,360,0.0,9.0,32,0.00,,,0.00,Rainwise IP-100,2013-02-07 21:15:00,
2013-02-07 16:20:00,12.2,-6.0,30.18,WSW,247,2.0,4.0,36,0.00,,,0.00,Rainwise IP-100,2013-02-07 21:20:00,
2013-02-07 16:25:00,12.2,-6.0,30.18,SSW,202,2.0,7.0,38,0.00,,,0.00,Rainwise IP-100,2013-02-07 21:25:00,
2013-02-07 16:30:00,11.8,-6.0,30.18,WSW,247,2.0,6.0,36,0.00,,,0.00,Rainwise IP-100,2013-02-07 21:30:00,
2013-02-07 16:35:00,11.3,-13.0,30.18,WNW,292,2.0,7.0,35,0.00,,,0.00,Rainwise IP-100,2013-02-07 21:35:00,
2013-02-07 16:40:00,10.9,-6.0,30.17,SSW,202,2.0,6.0,37,0.00,,,0.00,Rainwise IP-100,2013-02-07 21:40:00,
2013-02-07 16:45:00,10.7,-6.0,30.17,East,90,1.0,5.0,37,0.00,,,0.00,Rainwise IP-100,2013-02-07 21:45:00,
2013-02-07 16:50:00,10.6,-6.0,30.17,SSW,202,6.0,7.0,38,0.00,,,0.00,Rainwise IP-100,2013-02-07 21:50:00,
2013-02-07 16:55:00,10.5,-6.0,30.17,NW,315,3.0,7.0,36,0.00,,,0.00,Rainwise IP-100,2013-02-07 21:55:00,
2013-02-07 17:00:00,10.6,-6.0,30.17,WSW,247,2.0,6.0,36,0.00,,,0.00,Rainwise IP-100,2013-02-07 22:00:00,
2013-02-07 17:05:00,10.4,-6.0,30.17,West,270,0.0,4.0,37,0.00,,,0.00,Rainwise IP-100,2013-02-07 22:05:00,
2013-02-07 17:10:00,10.1,-6.0,30.18,NW,315,0.0,3.0,40,0.00,,,0.00,Rainwise IP-100,2013-02-07 22:10:00,
2013-02-07 17:15:00,9.8,-6.0,30.18,NW,315,3.0,4.0,41,0.00,,,0.00,Rainwise IP-100,2013-02-07 22:15:00,
2013-02-07 17:20:00,9.8,-6.0,30.19,ESE,112,1.0,5.0,39,0.00,,,0.00,Rainwise IP-100,2013-02-07 22:20:00,
2013-02-07 17:25:00,9.3,-6.0,30.19,North,360,0.0,2.0,39,0.00,,,0.00,Rainwise IP-100,2013-02-07 22:25:00,
2013-02-07 17:30:00,8.9,-6.0,30.18,East,90,0.0,5.0,39,0.00,,,0.00,Rainwise IP-100,2013-02-07 22:30:00,
2013-02-07 17:35:00,8.9,-6.0,30.18,East,90,0.0,4.0,40,0.00,,,0.00,Rainwise IP-100,2013-02-07 22:35:00,
2013-02-07 17:40:00,8.9,-6.0,30.18,East,90,2.0,2.0,40,0.00,,,0.00,Rainwise IP-100,2013-02-07 22:40:00,
2013-02-07 17:45:00,8.9,-6.0,30.19,NNW,337,0.0,4.0,37,0.00,,,0.00,Rainwise IP-100,2013-02-07 22:45:00,
2013-02-07 17:50:00,8.9,-6.0,30.19,East,90,2.0,4.0,38,0.00,,,0.00,Rainwise IP-100,2013-02-07 22:50:00,
2013-02-07 17:55:00,8.9,-6.0,30.19,East,90,2.0,2.0,38,0.00,,,0.00,Rainwise IP-100,2013-02-07 22:55:00,
2013-02-07 18:00:00,8.9,-6.0,30.19,North,360,0.0,4.0,39,0.00,,,0.00,Rainwise IP-100,2013-02-07 23:00:00,
2013-02-07 18:05:00,8.9,-6.0,30.19,SE,135,0.0,2.0,39,0.00,,,0.00,Rainwise IP-100,2013-02-07 23:05:00,
2013-02-07 18:10:00,8.9,-6.0,30.19,ESE,112,2.0,3.0,38,0.00,,,0.00,Rainwise IP-100,2013-02-07 23:10:00,
2013-02-07 18:15:00,8.9,-6.0,30.19,North,360,2.0,4.0,38,0.00,,,0.00,Rainwise IP-100,2013-02-07 23:15:00,
2013-02-07 18:20:00,8.9,-6.0,30.19,East,90,2.0,4.0,37,0.00,,,0.00,Rainwise IP-100,2013-02-07 23:20:00,
2013-02-07 18:25:00,8.9,-6.0,30.19,North,360,1.0,4.0,38,0.00,,,0.00,Rainwise IP-100,2013-02-07 23:25:00,
2013-02-07 18:30:00,8.8,-6.0,30.19,SE,135,0.0,2.0,39,0.00,,,0.00,Rainwise IP-100,2013-02-07 23:30:00,
2013-02-07 18:35:00,8.3,-13.0,30.20,SE,135,2.0,2.0,40,0.00,,,0.00,Rainwise IP-100,2013-02-07 23:35:00,
2013-02-07 18:40:00,7.8,-6.0,30.19,ESE,112,1.0,2.0,44,0.00,,,0.00,Rainwise IP-100,2013-02-07 23:40:00,
2013-02-07 18:45:00,7.1,-6.0,30.19,ESE,112,1.0,2.0,49,0.00,,,0.00,Rainwise IP-100,2013-02-07 23:45:00,
2013-02-07 18:50:00,6.5,-6.0,30.19,ESE,112,2.0,2.0,49,0.00,,,0.00,Rainwise IP-100,2013-02-07 23:50:00,
2013-02-07 18:55:00,5.9,-6.0,30.19,ESE,112,2.0,2.0,49,0.00,,,0.00,Rainwise IP-100,2013-02-07 23:55:00,
2013-02-07 19:00:00,5.4,-6.0,30.19,ESE,112,0.0,2.0,49,0.00,,,0.00,Rainwise IP-100,2013-02-08 00:00:00,
2013-02-07 19:05:00,5.1,-6.0,30.20,ESE,112,1.0,2.0,50,0.00,,,0.00,Rainwise IP-100,2013-02-08 00:05:00,
2013-02-07 19:10:00,4.9,-6.0,30.20,ESE,112,1.0,2.0,53,0.00,,,0.00,Rainwise IP-100,2013-02-08 00:10:00,
2013-02-07 19:15:00,4.9,-6.0,30.20,ESE,112,1.0,2.0,54,0.00,,,0.00,Rainwise IP-100,2013-02-08 00:15:00,
2013-02-07 19:20:00,4.6,-6.0,30.20,ESE,112,1.0,2.0,52,0.00,,,0.00,Rainwise IP-100,2013-02-08 00:20:00,
2013-02-07 19:25:00,4.4,-6.0,30.20,ESE,112,1.0,2.0,51,0.00,,,0.00,Rainwise IP-100,2013-02-08 00:25:00,
2013-02-07 19:30:00,4.3,-6.0,30.20,ESE,112,2.0,2.0,50,0.00,,,0.00,Rainwise IP-100,2013-02-08 00:30:00,
2013-02-07 19:35:00,4.3,-6.0,30.20,ESE,112,2.0,3.0,53,0.00,,,0.00,Rainwise IP-100,2013-02-08 00:35:00,
2013-02-07 19:40:00,4.2,-6.0,30.20,ESE,112,2.0,3.0,57,0.00,,,0.00,Rainwise IP-100,2013-02-08 00:40:00,
2013-02-07 19:45:00,4.1,-6.0,30.20,ESE,112,2.0,2.0,55,0.00,,,0.00,Rainwise IP-100,2013-02-08 00:45:00,
2013-02-07 19:50:00,3.8,-6.0,30.20,ESE,112,1.0,2.0,52,0.00,,,0.00,Rainwise IP-100,2013-02-08 00:50:00,
2013-02-07 19:55:00,3.7,-6.0,30.20,ESE,112,1.0,2.0,55,0.00,,,0.00,Rainwise IP-100,2013-02-08 00:55:00,
2013-02-07 20:00:00,3.6,-6.0,30.20,ESE,112,1.0,2.0,53,0.00,,,0.00,Rainwise IP-100,2013-02-08 01:00:00,
2013-02-07 20:05:00,3.5,-6.0,30.20,SSE,157,0.0,2.0,51,0.00,,,0.00,Rainwise IP-100,2013-02-08 01:05:00,
2013-02-07 20:10:00,3.4,-6.0,30.20,SSE,157,2.0,0.0,54,0.00,,,0.00,Rainwise IP-100,2013-02-08 01:10:00,
2013-02-07 20:15:00,3.2,-6.0,30.20,SE,135,1.0,2.0,54,0.00,,,0.00,Rainwise IP-100,2013-02-08 01:15:00,
2013-02-07 20:20:00,3.4,-13.0,30.21,ESE,112,2.0,2.0,48,0.00,,,0.00,Rainwise IP-100,2013-02-08 01:20:00,
2013-02-07 20:25:00,3.4,-6.0,30.21,ESE,112,2.0,2.0,53,0.00,,,0.00,Rainwise IP-100,2013-02-08 01:25:00,
2013-02-07 20:30:00,3.3,-6.0,30.21,ESE,112,2.0,2.0,56,0.00,,,0.00,Rainwise IP-100,2013-02-08 01:30:00,
2013-02-07 20:35:00,3.1,-6.0,30.22,ESE,112,2.0,2.0,55,0.00,,,0.00,Rainwise IP-100,2013-02-08 01:35:00,
2013-02-07 20:40:00,2.9,-6.0,30.22,ESE,112,2.0,2.0,55,0.00,,,0.00,Rainwise IP-100,2013-02-08 01:40:00,
2013-02-07 20:45:00,2.9,-6.0,30.21,ESE,112,2.0,2.0,54,0.00,,,0.00,Rainwise IP-100,2013-02-08 01:45:00,
2013-02-07 20:50:00,2.8,-6.0,30.22,ESE,112,2.0,2.0,59,0.00,,,0.00,Rainwise IP-100,2013-02-08 01:50:00,
2013-02-07 20:55:00,2.5,-6.0,30.22,ESE,112,2.0,2.0,56,0.00,,,0.00,Rainwise IP-100,2013-02-08 01:55:00,
2013-02-07 21:00:00,2.4,-6.0,30.22,ESE,112,1.0,2.0,60,0.00,,,0.00,Rainwise IP-100,2013-02-08 02:00:00,
2013-02-07 21:05:00,2.4,-6.0,30.22,ESE,112,1.0,2.0,56,0.00,,,0.00,Rainwise IP-100,2013-02-08 02:05:00,
2013-02-07 21:10:00,2.7,-6.0,30.22,SE,135,0.0,2.0,52,0.00,,,0.00,Rainwise IP-100,2013-02-08 02:10:00,
2013-02-07 21:15:00,2.4,-6.0,30.22,SE,135,0.0,1.0,55,0.00,,,0.00,Rainwise IP-100,2013-02-08 02:15:00,
2013-02-07 21:20:00,2.3,-6.0,30.22,SE,135,0.0,2.0,55,0.00,,,0.00,Rainwise IP-100,2013-02-08 02:20:00,
2013-02-07 21:25:00,2.2,-6.0,30.22,SE,135,0.0,1.0,58,0.00,,,0.00,Rainwise IP-100,2013-02-08 02:25:00,
2013-02-07 21:30:00,2.1,-6.0,30.22,SE,135,0.0,1.0,61,0.00,,,0.00,Rainwise IP-100,2013-02-08 02:30:00,
2013-02-07 21:35:00,2.1,-6.0,30.22,South,180,0.0,2.0,57,0.00,,,0.00,Rainwise IP-100,2013-02-08 02:35:00,
2013-02-07 21:40:00,2.1,-6.0,30.21,NNW,337,1.0,3.0,57,0.00,,,0.00,Rainwise IP-100,2013-02-08 02:40:00,
2013-02-07 21:45:00,2.1,-6.0,30.21,SE,135,0.0,4.0,56,0.00,,,0.00,Rainwise IP-100,2013-02-08 02:45:00,
2013-02-07 21:50:00,2.1,-6.0,30.21,East,90,0.0,2.0,55,0.00,,,0.00,Rainwise IP-100,2013-02-08 02:50:00,
2013-02-07 21:55:00,1.9,-6.0,30.21,ESE,112,0.0,2.0,55,0.00,,,0.00,Rainwise IP-100,2013-02-08 02:55:00,
2013-02-07 22:00:00,1.6,-6.0,30.20,ESE,112,0.0,2.0,55,0.00,,,0.00,Rainwise IP-100,2013-02-08 03:00:00,
2013-02-07 22:05:00,1.6,-6.0,30.20,ESE,112,1.0,2.0,55,0.00,,,0.00,Rainwise IP-100,2013-02-08 03:05:00,
2013-02-07 22:10:00,1.4,-6.0,30.20,ESE,112,0.0,2.0,55,0.00,,,0.00,Rainwise IP-100,2013-02-08 03:10:00,
2013-02-07 22:15:00,1.3,-6.0,30.21,SSW,202,0.0,2.0,56,0.00,,,0.00,Rainwise IP-100,2013-02-08 03:15:00,
2013-02-07 22:20:00,1.2,-6.0,30.20,SSW,202,0.0,0.0,56,0.00,,,0.00,Rainwise IP-100,2013-02-08 03:20:00,
2013-02-07 22:25:00,1.3,-6.0,30.20,SSW,202,0.0,2.0,57,0.00,,,0.00,Rainwise IP-100,2013-02-08 03:25:00,
2013-02-07 22:30:00,1.3,-6.0,30.20,SSW,202,0.0,2.0,56,0.00,,,0.00,Rainwise IP-100,2013-02-08 03:30:00,
2013-02-07 22:35:00,1.4,-6.0,30.20,WSW,247,2.0,2.0,56,0.00,,,0.00,Rainwise IP-100,2013-02-08 03:35:00,
2013-02-07 22:40:00,1.6,-6.0,30.20,SSE,157,0.0,2.0,55,0.00,,,0.00,Rainwise IP-100,2013-02-08 03:40:00,
2013-02-07 22:45:00,1.6,-6.0,30.20,SSW,202,1.0,2.0,55,0.00,,,0.00,Rainwise IP-100,2013-02-08 03:45:00,
2013-02-07 22:50:00,1.7,-6.0,30.21,SSW,202,1.0,2.0,55,0.00,,,0.00,Rainwise IP-100,2013-02-08 03:50:00,
2013-02-07 22:55:00,1.9,-6.0,30.21,SSW,202,0.0,2.0,55,0.00,,,0.00,Rainwise IP-100,2013-02-08 03:55:00,
2013-02-07 23:00:00,2.1,-6.0,30.21,SSW,202,0.0,2.0,55,0.00,,,0.00,Rainwise IP-100,2013-02-08 04:00:00,
2013-02-07 23:05:00,1.9,-6.0,30.21,SSW,202,0.0,0.0,55,0.00,,,0.00,Rainwise IP-100,2013-02-08 04:05:00,
2013-02-07 23:10:00,1.7,-6.0,30.21,SSW,202,0.0,0.0,58,0.00,,,0.00,Rainwise IP-100,2013-02-08 04:10:00,
2013-02-07 23:15:00,1.7,-6.0,30.22,SSW,202,0.0,2.0,57,0.00,,,0.00,Rainwise IP-100,2013-02-08 04:15:00,
2013-02-07 23:20:00,1.6,-6.0,30.21,SSW,202,0.0,0.0,59,0.00,,,0.00,Rainwise IP-100,2013-02-08 04:20:00,
2013-02-07 23:25:00,1.6,-6.0,30.21,SSW,202,0.0,0.0,60,0.00,,,0.00,Rainwise IP-100,2013-02-08 04:25:00,
2013-02-07 23:30:00,1.7,-6.0,30.21,South,180,0.0,2.0,61,0.00,,,0.00,Rainwise IP-100,2013-02-08 04:30:00,
2013-02-07 23:35:00,1.9,-6.0,30.21,South,180,0.0,2.0,59,0.00,,,0.00,Rainwise IP-100,2013-02-08 04:35:00,
2013-02-07 23:40:00,1.9,-6.0,30.20,South,180,0.0,2.0,62,0.00,,,0.00,Rainwise IP-100,2013-02-08 04:40:00,
2013-02-07 23:45:00,1.8,-6.0,30.20,SE,135,0.0,2.0,60,0.00,,,0.00,Rainwise IP-100,2013-02-08 04:45:00,
2013-02-07 23:50:00,1.9,-6.0,30.19,SW,225,1.0,2.0,59,0.00,,,0.00,Rainwise IP-100,2013-02-08 04:50:00,
2013-02-07 23:55:00,2.1,-6.0,30.19,SSE,157,0.0,2.0,59,0.00,,,0.00,Rainwise IP-100,2013-02-08 04:55:00,